Vertical_Velocity
1 -0 1 0 -0 1 1 1 0 -0 -0 -0 -0 0 -0 1 2 0 0 -1 -2 -3 -3 -0 -1 0 1 1 -1 -1 -1 -1 -1
0 1 1 1 -0 -0 -0 -2 0 -1 1 1 1 1 0 1 2 1 1 2 1 1 -2 -1 -2 0 -1 -1 1 -1 -0 -3 -1
-0 -1 -0 -1 -1 -1 -1 -2 -3 -3 -2 -1 -1 1 -1 0 -1 1 3 3 1 4 2 1 -1 -3 -1 2 -0 -2 -1 1 -1
-1 -2 -1 -1 -2 -1 -2 -2 -1 -1 -2 -2 -2 -2 -3 -4 -3 -1 -2 0 -1 2 0 1 1 0 -0 -2 -0 -0 -0 -2 -1
-1 -1 -2 -1 -1 -1 -1 -1 -1 -0 -2 -2 -4 -1 -2 -3 -3 -3 -3 -4 -5 -4 2 1 1 3 1 -0 -1 -1 -1 1 -0
-1 -1 -1 -2 -2 -3 -2 -1 -2 -2 -2 -4 -3 -2 -2 -2 -2 -2 -1 -1 -1 -2 -3 -3 -2 -1 1 3 0 -3 -3 1 1
-1 -2 -0 -2 0 -2 -2 -3 -3 -3 -3 -2 -2 -3 -2 -2 -2 -2 -3 -4 -4 -6 -6 -5 -4 -3 -1 0 2 3 -2 -1 3
-1 -0 -2 -2 -2 -1 -1 -1 -1 -2 -3 -2 -2 -2 -2 -2 -1 -0 -1 -2 -3 -2 -2 -2 -5 -5 -3 -2 -1 1 1 -1 -3
-1 -2 -2 -2 -1 -1 -2 -2 -2 -2 -2 -4 -2 -2 -3 -3 -4 -4 -4 -4 -6 -5 -4 -4 -3 -3 -4 -4 -1 -1 2 5 -1
-1 -1 -2 -3 -3 -3 -2 -2 -2 -2 -2 -3 -5 -4 -4 -5 -7 -8 -6 -5 -3 -2 -2 -3 -5 -5 -1 -2 -3 1 -0 4 4
-3 -3 -3 -3 -4 -4 -4 -5 -4 -2 -5 -2 -4 -4 -5 -5 -5 -5 -5 -4 -5 -6 -6 -2 -1 -2 -7 -0 1 2 3 3 3
-3 -4 -4 -4 -5 -4 -4 -4 -4 -4 -2 -5 -5 -5 -4 -5 -4 -5 -4 -3 -4 -5 -3 -4 -6 -4 -1 -5 1 2 2 5 2
-4 -4 -5 -4 -4 -5 -5 -5 -2 -3 -6 -4 -2 -3 -4 -4 -3 -5 -4 -4 -5 -3 -4 -4 -5 -6 -7 -6 -4 -1 -2 -1 4
-5 -5 -6 -4 -3 -3 -5 -3 -7 -6 -6 -8 -6 -4 -5 -3 -2 -2 -3 -4 0 -5 1 -5 -3 -5 -4 -3 -3 1 0 4 -2
-4 -5 -5 -5 -5 -5 -5 -7 -3 -9 -10 -8 -5 -2 -0 -2 -1 -3 3 7 3 2 -7 -10 -7 2 -1 -1 -0 4 4 3 4
-3 -2 -4 -5 -5 -5 -6 -6 -8 -3 -7 -14 1 1 1 3 -3 1 -1 1 0 5 -0 -2 -10 -3 1 -1 4 2 0 1 5
-3 -4 -4 -5 -3 -3 -4 -6 -7 -4 -4 -12 -11 -29 16 8 -0 4 2 0 -2 5 -4 1 4 -4 -10 0 -1 1 1 2 8
-4 -4 -4 -4 -6 -4 -3 -5 -4 -6 4 2 -12 -27 -19 -33 19 7 12 1 2 5 4 0 4 -1 -2 -1 1 -0 1 0 1
-3 -3 -4 -4 -3 -2 -3 -3 -3 -5 -5 2 4 8 -2 -14 -68 6 6 2 -3 7 2 3 4 -3 0 0 1 -2 1 -2 -3
-3 -4 -4 -4 -4 -5 -5 -2 -4 -5 -7 -6 -4 4 4 12 0 -34 -8 3 1 1 -2 5 -0 -0 -1 2 2 1 1 2 -6
Height
3137 3136 3136 3135 3134 3134 3133 3133 3132 3131 3131 3130 3129 3129 3128 3128 3128 3128 3129 3130 3130 3131 3131 3132 3133 3134 3134 3135 3136 3138 3139 3140 3140
3135 3134 3133 3132 3132 3131 3130 3129 3128 3128 3127 3126 3126 3125 3125 3124 3124 3124 3124 3124 3124 3125 3126 3127 3128 3129 3130 3130 3131 3132 3134 3135 3136
3133 3132 3131 3130 3128 3127 3127 3126 3125 3124 3124 3123 3122 3122 3121 3121 3120 3120 3120 3119 3118 3118 3118 3120 3121 3122 3124 3125 3126 3127 3128 3129 3131
3131 3129 3128 3127 3125 3124 3123 3122 3121 3120 3119 3119 3118 3117 3116 3115 3115 3115 3115 3114 3113 3113 3113 3112 3112 3114 3116 3118 3119 3120 3121 3123 3124
3129 3127 3125 3124 3122 3121 3120 3118 3117 3116 3115 3114 3113 3112 3111 3110 3110 3109 3109 3108 3107 3106 3106 3106 3106 3106 3106 3108 3110 3112 3114 3115 3117
3124 3122 3121 3119 3118 3116 3115 3113 3112 3111 3110 3108 3107 3106 3105 3104 3103 3102 3101 3100 3099 3098 3098 3098 3098 3098 3098 3098 3099 3102 3104 3107 3109
3120 3118 3116 3115 3113 3112 3110 3109 3108 3106 3104 3102 3100 3098 3096 3095 3093 3093 3092 3091 3089 3088 3088 3087 3087 3088 3088 3088 3089 3090 3093 3097 3099
3117 3115 3113 3111 3109 3106 3105 3103 3101 3098 3096 3094 3092 3090 3087 3085 3083 3082 3080 3078 3077 3075 3074 3074 3074 3074 3075 3076 3077 3078 3081 3084 3088
3112 3110 3107 3105 3102 3100 3097 3095 3093 3091 3088 3085 3082 3079 3077 3074 3072 3069 3067 3064 3062 3060 3059 3058 3059 3059 3059 3061 3062 3064 3066 3070 3074
3106 3104 3101 3098 3095 3092 3089 3086 3084 3081 3079 3075 3071 3068 3066 3062 3058 3054 3052 3048 3045 3042 3041 3041 3040 3040 3041 3042 3044 3047 3050 3053 3059
3100 3097 3094 3091 3088 3084 3081 3078 3075 3072 3068 3066 3062 3057 3053 3050 3046 3041 3036 3033 3029 3026 3023 3022 3020 3020 3020 3022 3023 3025 3029 3034 3040
3094 3091 3088 3084 3080 3076 3072 3068 3064 3060 3057 3052 3049 3045 3042 3039 3034 3028 3022 3017 3015 3011 3006 3003 3002 3001 2999 3000 3000 3003 3006 3011 3020
3088 3084 3080 3076 3072 3068 3063 3059 3054 3050 3045 3040 3037 3032 3027 3023 3019 3014 3008 3003 2998 2995 2992 2988 2985 2984 2983 2984 2984 2984 2987 2992 2997
3081 3077 3073 3068 3064 3060 3054 3050 3044 3038 3033 3027 3023 3018 3013 3008 3004 2999 2993 2989 2983 2979 2975 2972 2969 2968 2967 2967 2968 2969 2971 2975 2980
3073 3070 3065 3060 3056 3050 3045 3038 3033 3028 3019 3010 3004 3000 2996 2992 2986 2981 2978 2973 2969 2964 2960 2957 2955 2953 2951 2952 2953 2953 2954 2957 2962
3066 3061 3057 3051 3046 3040 3033 3027 3021 3015 3007 2996 2989 2985 2982 2979 2974 2968 2961 2957 2953 2950 2946 2943 2940 2937 2937 2937 2938 2939 2943 2945 2949
3058 3054 3049 3043 3037 3032 3025 3017 3009 3003 2995 2984 2974 2962 2959 2958 2959 2952 2946 2940 2938 2934 2931 2929 2926 2923 2923 2924 2925 2927 2929 2933 2938
3051 3046 3041 3035 3028 3021 3014 3007 3000 2990 2984 2977 2967 2952 2943 2935 2946 2938 2928 2926 2923 2921 2919 2916 2913 2912 2911 2912 2914 2915 2918 2922 2925
3044 3039 3033 3027 3020 3014 3007 3000 2992 2983 2973 2965 2958 2948 2937 2925 2913 2927 2913 2913 2907 2908 2905 2903 2901 2900 2900 2901 2902 2904 2906 2909 2912
3038 3032 3025 3019 3012 3006 2998 2990 2981 2972 2962 2954 2946 2939 2930 2920 2911 2898 2901 2901 2896 2895 2892 2891 2890 2889 2889 2889 2890 2892 2894 2898 2900